Flag for Trinidad and Tobago Weather past 2 weeks in Scarborough, Trinidad and Tobago

Now
88 °F

Passing clouds.


Feels Like: 91 °F
Forecast: 77 / 86 °F
Wind: 24 mph from East

Location: Crown Pt./ Scarborou

Current Time: May 5, 2015 at 1:21:26 PM

Latest Report: May 5, 2015 at 1:00 PM


Visibility: N/A

Pressure: 30.04 "Hg

Humidity: 52%

Dew point: 68 °F

Location of ScarboroughLocation

Historic Weather in Scarborough — Graph

°F

Scarborough temperature yesterday

Maximum temperature yesterday: 88 °F (at 11:00 AM)
Minimum temperature yesterday: 79 °F (at 12:00 AM)
Average temperature yesterday: 82 °F

Past Weeks' High & Low Weather Summary

 TemperatureHumidityPressure
High88 °F (May 4, 11:00 AM)84% (Apr 23, 8:00 PM)30.07 "Hg (Apr 23, 8:00 PM)
Low75 °F (Apr 21, 3:00 AM)49% (May 5, 10:00 AM)29.89 "Hg (Apr 22, 6:00 PM)
Average81 °F70%29.96 "Hg
* Reported Apr 20 11:00 AM — May 5 11:00 AM, Scarborough, Weather by CustomWeather, © 2015

Note: Actual official high and low records may vary slightly from our data, if they occured in-between our weather recording intervals... More about our weather records

Advertising

Scarborough weather history for previous 24 hours

 ConditionsComfort  
Time TempWeatherWind HumidityBarometerVisibility
11:00 AM
Tue, May 5
88 °FPassing clouds.22 mph52%30.07 "HgN/A
10:00 AM88 °FPassing clouds.20 mph49%30.07 "HgN/A
8:00 AM84 °FPassing clouds.15 mph70%30.04 "HgN/A
7:00 AM79 °FPassing clouds.8 mph70%30.04 "HgN/A
6:00 AM77 °FPassing clouds.6 mph74%30.01 "HgN/A
1:00 AM79 °FPassing clouds.7 mph70%30.01 "HgN/A
12:00 AM79 °FPassing clouds.10 mph70%30.01 "HgN/A
11:00 PM
Mon, May 4
79 °FPassing clouds.5 mph70%30.04 "HgN/A
10:00 PM79 °FPassing clouds.9 mph70%30.04 "HgN/A
9:00 PM79 °FPassing clouds.7 mph74%30.04 "HgN/A
8:00 PM81 °FPassing clouds.9 mph74%30.01 "HgN/A
7:00 PM81 °FPassing clouds.6 mph66%30.01 "HgN/A
6:00 PM82 °FPassing clouds.8 mph62%29.98 "HgN/A
5:00 PM84 °FPassing clouds.17 mph58%29.98 "HgN/A
4:00 PM86 °FPassing clouds.23 mph52%29.98 "HgN/A
3:00 PM88 °FPassing clouds.21 mph52%30.01 "HgN/A
2:00 PM88 °FPassing clouds.14 mph55%30.01 "HgN/A
1:00 PM88 °FPassing clouds.18 mph55%30.04 "HgN/A
Weather by CustomWeather, © 2015

See weather overviewHow to use our weather pages